Theta_e
350 352 352 353 354 355 354 357 356 357 357 357 356 356 357 359 357 357 359 360 361 360 361 362 363 362 361 362 361 363 366 365 365 368 369 369 368 368 368 368 366 364 366 365 364 365 366 365 365 365 366 362 361 360 358 361 364 363 361 359 357 359 357 357 353 353 358 362 360 358 360 362 360 364 362 361 363 366 364 368 368 364 364 364 365
351 353 353 353 353 353 353 355 356 357 355 356 357 356 357 358 359 360 358 360 361 359 361 360 361 362 362 362 364 363 366 369 367 368 369 368 366 363 364 366 366 364 365 365 364 363 366 366 364 363 366 363 360 358 359 361 361 359 359 357 358 360 361 357 357 355 353 359 359 363 361 362 358 365 362 361 362 365 363 364 365 364 363 366 365
352 355 354 354 354 352 353 355 355 355 354 354 354 353 355 357 359 358 357 356 360 360 359 360 364 365 364 365 366 365 368 367 369 368 367 366 365 363 361 363 363 361 361 363 363 364 363 364 363 364 362 361 361 360 360 360 359 359 358 360 360 361 362 363 359 354 352 353 359 358 359 360 359 360 362 361 363 362 362 362 361 361 363 363 362
354 355 353 352 353 353 353 354 353 353 352 352 353 353 353 355 358 357 356 356 356 360 360 361 364 367 366 366 366 366 365 365 366 366 366 365 364 364 365 364 363 362 360 360 360 363 361 360 357 358 360 360 361 360 361 360 362 362 360 364 366 362 362 360 359 355 353 349 356 355 356 355 356 358 359 359 357 358 359 361 359 359 360 359 360
353 354 354 352 352 352 352 352 352 353 353 352 352 353 353 353 356 356 355 355 357 357 362 364 366 367 365 365 365 365 364 365 364 363 363 363 363 362 362 364 362 362 361 363 356 353 351 352 352 352 352 353 357 359 359 361 361 363 360 363 363 361 359 359 358 356 353 351 351 354 356 356 356 357 358 355 354 356 358 356 353 354 356 357 356
354 354 353 352 352 352 352 352 351 352 354 353 353 353 353 353 354 356 356 355 358 357 361 362 363 366 366 365 365 365 365 365 365 364 363 362 362 361 362 362 361 363 362 360 355 353 353 353 352 353 352 353 355 360 363 362 362 362 363 363 361 361 359 358 357 355 354 352 352 350 354 352 353 355 355 352 349 348 351 352 353 353 353 352 352
354 355 354 352 352 352 351 352 353 352 355 356 356 354 354 353 354 353 355 356 356 356 357 363 365 364 365 365 363 364 365 365 365 364 361 359 358 360 360 362 361 361 361 357 355 353 352 352 352 353 352 354 356 359 363 362 362 362 362 362 359 358 356 356 355 353 353 350 350 351 350 351 352 347 350 352 351 349 346 344 345 349 351 351 349
353 353 353 353 353 353 353 354 356 356 357 359 359 357 355 354 354 355 355 356 355 355 356 357 361 360 361 364 365 365 365 363 363 359 357 357 357 358 359 359 359 360 360 358 356 353 354 355 356 356 356 358 359 363 362 363 362 361 360 360 359 357 354 354 353 351 349 348 346 345 347 346 347 346 347 347 344 344 345 344 341 342 346 349 350
354 351 353 354 355 357 357 357 358 359 359 360 359 359 357 356 356 356 357 356 354 355 357 356 356 358 362 364 365 365 362 360 358 356 355 355 356 353 356 356 358 358 357 356 357 356 357 358 358 358 359 361 360 361 360 359 358 358 358 358 357 354 353 352 350 348 346 344 344 345 342 342 342 341 340 339 339 339 343 345 344 345 347 347 348
354 353 353 355 356 358 358 359 358 359 358 358 359 360 358 357 356 356 356 355 357 358 358 358 355 355 358 363 363 362 360 360 357 354 355 357 355 353 355 358 359 358 358 357 357 355 355 357 358 358 358 360 360 357 354 353 354 355 356 355 353 353 350 348 346 344 343 341 339 338 337 336 338 340 339 341 343 344 342 343 342 343 346 345 346
354 354 354 356 357 358 358 358 358 358 358 359 360 360 359 358 358 358 357 357 357 359 358 356 356 355 356 359 358 359 361 356 353 344 345 350 355 357 356 356 357 357 357 358 356 356 354 355 359 359 359 357 356 353 353 351 349 348 348 348 348 350 347 345 342 342 341 339 338 337 336 337 338 340 340 340 342 342 341 342 342 343 341 339 336
353 354 355 356 357 358 358 358 358 358 359 358 359 360 360 359 359 359 357 356 359 358 356 356 359 358 357 357 357 360 357 333 332 339 343 343 351 356 358 356 355 356 356 356 356 355 352 352 353 348 344 347 350 350 349 347 344 343 343 343 343 342 343 345 342 338 339 338 337 336 335 335 336 338 338 340 340 341 342 343 344 342 340 339 336
352 353 355 356 357 357 358 358 358 358 359 359 359 360 359 359 359 358 356 357 357 358 358 357 358 359 358 361 361 357 348 328 329 334 337 338 341 352 355 353 355 353 355 357 355 353 353 351 344 342 343 343 347 349 348 346 343 342 342 342 342 340 337 339 342 344 341 337 335 333 334 335 334 336 339 340 344 341 341 341 341 343 341 337 336
350 351 354 355 357 358 358 358 358 359 359 360 360 360 359 358 358 358 358 359 358 358 357 358 359 361 361 360 357 348 341 327 326 330 332 334 335 344 354 355 356 355 358 358 356 354 354 349 340 336 336 339 343 346 346 344 342 342 342 343 343 343 342 341 341 341 341 339 338 336 338 338 335 337 341 342 340 338 339 337 341 342 340 337 338
348 350 351 354 355 356 357 358 357 358 359 360 360 359 359 359 359 360 359 359 359 359 359 359 360 361 358 354 348 339 330 320 322 325 327 330 333 343 354 356 356 356 356 356 355 352 345 339 338 336 336 338 341 341 342 341 341 342 342 341 339 339 338 339 341 341 340 339 338 337 338 339 339 338 340 343 341 342 341 340 340 342 344 348 342
347 348 350 352 354 356 357 357 358 358 359 359 358 358 359 359 359 361 361 361 362 362 361 360 355 351 348 345 341 336 329 318 320 323 323 326 332 347 355 355 354 352 348 345 343 340 337 336 336 336 338 340 340 339 341 343 341 340 339 337 335 332 331 333 328 331 333 334 336 335 334 333 332 337 338 338 341 343 342 342 341 341 339 336 334
346 347 348 350 352 354 357 357 357 358 359 358 357 357 358 359 360 362 360 360 357 355 353 350 347 345 344 343 341 337 333 322 317 320 323 326 336 352 354 353 347 340 338 338 336 335 336 337 337 338 338 338 335 329 334 340 342 340 336 334 333 331 328 329 328 327 326 324 324 326 326 326 326 325 325 328 336 339 339 335 332 333 332 330 331
346 346 347 349 350 352 355 356 356 357 358 356 356 357 359 361 361 361 358 354 351 348 344 342 342 343 342 340 339 335 332 323 316 318 322 328 346 352 350 344 339 336 335 335 335 335 334 338 338 337 337 336 328 327 331 341 341 339 336 335 332 331 330 329 328 328 328 327 326 326 326 327 328 329 328 328 330 335 334 329 331 332 329 329 326
343 345 347 349 350 352 353 355 355 355 355 355 356 356 358 359 359 357 354 350 346 343 341 340 339 339 338 337 333 335 333 327 316 318 322 328 343 348 343 340 336 334 333 332 334 335 335 335 337 336 335 329 320 324 329 340 339 336 334 331 329 327 328 329 327 325 326 326 327 328 328 328 329 330 331 332 333 336 334 332 333 330 328 327 327
342 346 348 349 350 351 351 352 354 354 355 356 358 358 357 351 349 348 347 343 339 339 338 336 333 333 334 334 334 335 334 333 327 316 318 321 328 346 343 338 333 330 330 330 329 330 329 328 328 322 320 319 318 319 322 327 337 337 333 329 326 324 326 325 324 323 323 323 323 324 324 325 324 325 326 326 326 330 330 329 329 331 328 325 326
340 342 346 348 349 349 350 351 351 353 354 354 356 354 351 348 346 344 341 339 337 335 333 331 330 329 332 334 334 335 335 334 327 315 315 318 322 332 340 336 333 331 330 329 329 329 330 331 330 323 318 317 316 315 317 321 329 332 330 329 328 327 326 322 322 323 321 322 323 322 321 322 322 322 321 321 321 323 324 325 324 324 323 321 320
342 340 341 344 346 348 348 350 351 351 353 353 350 347 346 345 343 340 337 334 333 332 331 330 328 327 328 330 332 332 332 331 330 318 315 315 317 324 336 336 335 333 330 330 329 329 329 330 330 323 317 316 315 314 315 319 323 329 325 316 317 320 322 322 321 321 321 321 321 320 320 318 318 319 319 318 319 322 320 321 321 321 321 321 320
343 341 340 341 345 347 348 349 349 349 350 351 348 340 340 340 338 336 334 333 331 329 328 327 325 324 323 325 327 328 329 329 327 326 316 314 315 319 322 329 325 335 331 331 332 332 333 331 330 322 314 311 311 312 313 316 323 320 312 314 317 320 323 321 323 322 321 321 321 320 319 318 317 317 318 318 319 323 320 322 321 321 322 322 322
342 340 340 341 343 346 347 348 349 350 350 348 341 335 333 333 333 333 332 331 328 326 326 325 324 321 320 320 324 326 327 328 326 326 322 314 313 313 315 318 323 332 333 332 333 334 333 331 324 311 308 306 309 312 315 321 321 309 312 316 319 323 323 322 321 322 322 321 319 318 317 318 317 317 318 320 320 323 321 320 321 321 321 321 322
342 341 341 343 344 346 346 347 347 348 347 343 336 333 331 331 328 328 328 327 326 324 324 322 321 321 320 320 321 323 325 327 326 324 322 320 314 313 315 316 317 321 331 332 332 330 319 310 307 308 309 308 309 312 313 314 311 312 314 319 324 322 323 321 322 322 318 317 317 317 317 317 317 318 321 323 323 322 321 319 320 320 320 322 322
340 341 342 343 344 345 343 341 342 344 341 339 337 335 330 327 326 326 325 325 323 321 320 318 319 319 319 319 319 319 321 323 325 326 325 324 321 317 319 324 330 330 328 324 321 315 312 311 311 311 315 319 326 325 323 322 318 319 320 322 321 320 320 319 321 319 317 316 316 315 315 317 317 320 322 321 319 317 319 318 317 315 317 318 318
329 328 328 328 330 334 334 333 330 330 330 331 332 331 330 327 325 325 322 320 319 319 319 319 318 318 317 317 318 317 316 318 321 322 322 322 323 325 328 328 328 328 327 328 325 323 321 324 324 320 320 322 325 325 324 323 323 322 321 320 319 319 319 320 319 318 318 316 315 315 316 317 320 320 317 317 316 317 318 318 314 314 315 318 317
326 325 324 324 325 326 328 329 326 324 324 325 324 325 326 325 322 321 320 319 317 316 315 315 315 314 313 313 314 315 316 316 317 317 317 319 319 322 323 325 326 328 325 327 328 329 328 325 322 326 324 321 320 319 320 320 319 318 317 318 319 320 319 320 319 318 317 316 315 316 317 318 315 315 315 314 314 315 317 317 315 315 315 317 315
324 324 324 323 322 322 319 318 319 318 316 315 313 312 316 319 317 317 319 319 317 314 313 314 316 315 316 315 314 315 317 315 314 309 314 308 318 319 320 321 323 326 326 322 331 329 326 323 322 320 319 318 317 316 317 317 317 317 316 317 317 317 318 317 316 316 318 318 316 316 314 315 315 315 314 314 314 314 316 316 317 315 316 316 312
323 322 323 322 321 321 320 319 318 318 317 315 313 311 311 304 312 315 313 314 310 308 311 316 316 316 313 312 315 317 316 315 303 298 297 297 299 304 307 309 313 322 319 319 328 326 323 320 319 317 316 316 315 315 315 316 316 316 317 318 317 316 316 317 316 316 317 316 315 314 314 314 313 313 312 312 313 313 314 313 314 316 313 312 311
323 323 323 322 322 321 320 318 316 314 314 313 312 311 308 306 298 301 307 306 301 297 298 301 306 311 317 310 307 304 302 299 296 295 295 295 297 297 297 299 304 307 311 327 327 325 322 319 318 318 318 317 317 316 317 317 317 317 316 316 315 314 314 314 314 314 314 313 313 313 313 312 311 311 310 311 311 312 312 313 313 314 312 311 310
321 322 322 324 324 323 319 316 315 314 312 312 312 311 310 308 307 298 298 300 299 297 296 296 297 300 305 310 314 309 302 297 295 295 295 296 296 297 298 299 302 305 309 315 326 323 322 320 318 317 317 317 318 319 318 318 317 316 315 314 313 313 313 312 313 313 312 312 312 311 311 310 311 311 311 310 310 311 311 311 311 311 311 311 310
322 322 323 322 322 321 318 316 315 313 312 312 312 313 312 312 310 310 307 300 298 297 296 296 296 297 297 296 299 301 299 297 296 296 297 297 298 299 299 301 302 303 311 324 325 323 323 321 319 319 319 318 319 319 318 316 316 315 314 313 311 311 312 313 314 312 311 310 310 309 309 309 310 311 310 311 310 309 310 310 310 310 309 308 310
324 323 322 320 319 318 317 315 315 315 315 314 314 314 315 315 314 314 314 314 314 306 301 298 297 297 296 296 297 297 297 298 298 298 299 300 301 303 306 311 302 306 315 326 323 321 321 320 321 321 321 320 318 317 316 315 315 314 313 311 311 312 312 313 311 310 310 309 309 308 309 309 310 310 310 310 310 310 310 309 309 308 308 308 307
322 322 322 321 318 316 316 316 316 317 316 317 317 318 317 319 319 318 317 315 314 311 309 308 301 299 305 301 296 296 297 297 298 299 301 302 303 305 310 325 323 323 323 325 324 322 321 321 320 320 320 318 317 317 315 315 314 313 312 312 311 311 311 311 309 310 309 308 308 308 309 309 310 309 309 309 308 308 307 307 307 308 307 307 306
321 320 320 320 319 319 318 319 318 318 319 320 321 321 321 321 320 319 318 318 315 312 312 311 310 305 300 296 296 297 297 298 298 299 299 302 305 309 323 321 320 320 319 320 319 319 319 319 318 318 318 317 317 315 314 313 313 312 312 311 309 309 309 309 308 309 309 308 307 308 308 308 308 308 308 308 308 306 306 306 306 307 307 306 306
321 320 319 319 319 319 319 321 322 323 324 324 323 322 322 322 321 320 319 318 317 317 316 316 317 317 315 315 308 300 298 299 299 300 300 302 305 319 321 320 318 318 317 317 317 317 316 316 317 316 315 314 314 313 312 311 311 311 309 310 309 308 307 307 307 308 307 306 307 308 308 307 306 307 306 305 305 305 305 306 306 305 306 305 305
322 320 320 321 323 323 324 324 324 324 324 324 324 323 322 322 322 321 321 320 319 318 317 318 318 316 316 316 318 317 315 306 304 305 305 306 315 319 318 318 317 315 315 315 315 315 314 313 313 312 312 311 310 310 309 310 309 308 308 309 308 306 304 306 306 307 307 306 306 306 306 305 306 306 305 305 304 304 304 305 304 304 305 305 305
324 323 323 323 324 324 323 323 323 322 322 322 322 322 321 321 320 320 319 319 319 318 318 317 316 316 316 317 318 318 318 315 314 313 314 314 315 315 315 315 315 314 315 315 315 314 313 312 312 311 311 310 310 310 309 308 308 307 308 307 306 306 305 305 305 306 305 305 305 305 304 305 305 305 305 305 304 304 304 304 304 304 303 303 304
324 323 323 323 323 323 325 325 323 323 322 321 321 321 321 320 319 318 318 317 316 316 316 315 315 316 317 319 318 318 315 313 313 312 313 313 313 313 314 313 313 312 312 312 311 311 311 310 310 309 309 309 309 309 309 309 308 307 307 305 305 304 303 304 304 304 304 305 304 304 304 304 305 305 305 304 304 304 304 304 304 304 304 304 304
324 325 325 324 324 325 325 324 323 323 322 321 320 320 319 319 319 318 317 316 315 314 313 312 311 311 309 307 304 308 314 313 313 312 312 312 312 311 311 311 311 311 311 310 310 310 309 309 309 308 308 308 308 307 307 307 306 306 305 304 304 303 303 303 304 304 304 304 304 304 304 304 304 304 303 304 303 304 304 304 303 303 303 304 304
322 321 323 324 324 324 323 323 322 322 322 322 321 319 318 318 317 317 317 316 315 314 312 311 310 309 305 301 300 301 311 312 312 311 311 311 310 310 310 311 311 311 310 309 309 309 309 309 308 308 307 307 306 306 306 305 304 304 303 303 303 303 302 302 303 304 303 303 303 303 303 303 304 304 304 303 303 303 303 303 304 304 303 304 304
323 322 322 324 325 325 323 322 322 322 321 321 320 320 320 318 317 316 316 315 315 314 313 311 311 311 309 305 306 306 311 311 311 310 310 309 309 309 309 309 309 309 309 309 309 309 307 306 306 305 305 305 305 305 304 304 304 304 304 303 302 302 302 302 302 303 303 303 303 303 303 303 303 303 303 303 303 303 303 303 303 303 303 303 304
322 323 323 323 323 323 323 322 322 322 322 322 320 320 319 318 317 316 315 314 313 313 312 311 311 310 310 309 308 309 310 310 309 309 309 308 308 307 307 307 307 307 307 307 307 306 305 305 304 304 304 304 304 305 304 303 303 303 303 302 301 301 301 301 302 302 302 302 302 302 302 303 302 303 303 303 303 303 303 303 303 303 303 303 303
320 320 319 320 321 322 322 323 321 321 320 320 319 319 318 317 316 315 314 313 313 313 312 312 311 311 310 310 310 310 309 309 308 308 307 307 307 307 306 306 306 307 306 306 306 306 305 304 304 303 303 304 304 303 304 304 304 303 303 302 302 301 301 302 302 303 303 303 302 302 302 302 302 302 302 302 303 303 301 302 302 302 302 303 303
320 320 319 319 320 320 321 321 322 321 319 318 317 316 316 317 316 315 314 314 313 313 312 312 311 311 310 309 309 308 308 308 307 307 307 307 307 307 307 307 306 306 306 306 306 306 305 305 304 303 303 303 303 303 303 303 303 303 304 303 303 303 303 303 303 303 303 303 303 302 302 302 302 302 302 302 302 302 302 303 303 303 303 302 302
319 319 319 319 318 318 318 319 318 318 318 317 317 317 317 316 316 315 314 314 313 312 311 311 310 310 309 309 308 308 308 307 307 307 307 307 307 307 307 307 306 306 306 306 306 305 305 304 304 303 303 303 303 303 303 303 303 303 303 303 304 303 303 303 303 303 303 304 304 303 302 302 301 302 302 302 302 302 302 302 302 302 302 302 301
318 317 317 317 317 316 317 318 317 318 317 317 317 317 316 315 315 313 313 312 311 310 310 310 309 309 308 308 308 308 307 307 306 306 306 306 306 307 307 307 306 306 306 305 305 305 304 304 304 303 303 303 303 303 303 303 304 303 303 304 303 303 301 300 304 304 305 304 304 303 303 302 302 302 302 302 302 302 301 301 301 302 302 301 302
317 316 316 316 316 317 317 316 317 317 317 316 315 314 314 313 313 312 311 311 310 310 309 309 309 308 308 308 307 307 306 307 306 305 306 305 306 306 307 307 307 306 306 306 305 305 305 304 304 304 304 304 304 303 304 303 303 303 303 303 300 293 292 293 300 302 299 304 304 303 304 303 302 301 301 302 302 302 302 302 302 301 301 302 301
318 318 318 317 317 316 316 316 316 317 316 315 314 313 313 313 312 311 310 310 310 310 310 309 309 308 307 307 307 306 306 305 305 305 305 305 305 306 306 306 306 305 305 304 304 304 304 305 304 304 304 304 304 304 304 303 304 303 304 302 292 289 290 293 295 295 301 303 303 303 303 302 302 301 301 302 303 302 301 301 301 301 301 301 301
318 318 318 318 316 315 315 315 315 314 314 315 314 313 312 311 311 311 310 310 309 309 309 309 309 308 308 307 307 306 306 306 305 305 305 305 305 305 305 305 305 304 304 305 304 304 304 304 304 304 304 304 304 304 304 304 304 304 298 291 289 288 287 290 300 291 290 294 304 302 302 302 302 301 301 301 302 301 301 301 301 301 301 301 302
Wind_Speed
12 11 10 11 11 11 11 10 11 10 10 10 10 9 8 7 7 7 5 6 6 6 7 7 7 6 7 6 6 6 6 7 6 5 5 5 5 5 5 4 5 6 5 6 6 6 6 6 6 5 4 5 5 4 4 1 1 1 2 2 2 2 2 3 5 6 5 3 5 5 5 5 5 5 7 7 6 6 7 5 5 5 5 4 2
11 10 10 9 12 12 12 10 11 10 11 10 11 10 9 8 7 6 7 7 7 7 7 7 6 6 6 6 7 7 7 6 6 5 5 5 6 5 5 6 6 6 5 6 6 6 6 6 7 6 5 6 6 5 4 2 3 3 2 2 2 1 1 3 4 5 6 4 4 5 4 4 6 5 6 7 7 7 7 7 6 6 5 5 5
11 10 9 9 11 11 11 10 10 12 12 11 12 12 10 10 8 8 8 8 7 7 7 7 5 5 6 6 6 7 5 6 5 5 4 5 6 6 6 5 6 6 7 7 7 6 6 6 7 6 5 5 5 5 4 3 2 2 2 1 2 1 1 2 3 6 7 6 6 6 5 6 6 6 7 6 7 7 7 7 7 6 6 7 6
10 10 11 12 12 12 11 10 12 12 12 12 13 12 11 10 9 10 10 9 8 7 8 7 6 5 6 6 6 6 6 6 6 6 7 7 7 7 7 6 6 7 7 7 7 5 6 7 9 10 9 7 5 5 3 2 2 2 2 2 2 1 1 2 3 4 5 7 6 6 6 7 7 7 6 7 8 8 7 7 7 7 7 7 7
11 11 12 13 13 12 12 12 12 12 12 11 13 13 12 11 9 10 10 10 9 8 6 6 6 6 6 6 6 6 7 7 7 7 7 7 7 7 7 6 6 6 6 5 5 8 4 4 3 5 7 10 9 5 3 3 2 2 2 0 1 2 2 2 3 4 5 7 7 6 6 6 6 7 7 9 9 8 7 7 8 8 8 8 8
11 11 11 13 12 13 13 13 13 13 13 13 13 12 11 11 11 10 10 11 10 9 7 6 6 7 7 7 7 7 7 7 7 8 7 7 6 6 6 6 5 5 5 2 4 5 6 4 3 3 5 6 8 5 3 3 3 2 1 1 1 2 2 2 3 4 5 6 7 7 6 7 7 6 8 9 9 9 8 8 8 7 8 8 8
8 9 11 13 12 13 13 13 13 13 12 12 11 11 11 11 11 11 10 10 10 10 9 8 6 7 7 7 8 7 7 7 6 6 4 7 8 7 6 5 5 4 2 4 4 3 2 2 4 5 4 6 7 6 4 4 3 2 1 0 1 2 3 4 3 4 5 6 6 5 6 6 6 7 8 8 8 7 8 9 8 8 8 8 9
11 10 10 11 12 13 13 12 12 11 10 10 10 10 11 11 11 10 9 10 10 10 10 9 8 8 7 7 7 6 6 6 2 4 3 8 8 7 6 6 5 3 2 4 4 5 7 7 6 6 6 7 8 6 5 4 3 3 1 1 1 2 3 2 3 3 4 5 5 6 5 5 5 7 7 7 8 7 8 9 9 10 9 8 8
10 12 11 11 11 11 11 10 10 10 10 9 9 10 11 11 10 9 9 10 9 10 10 10 8 8 7 7 6 6 6 4 5 7 7 5 5 9 8 6 5 3 5 5 5 6 5 4 3 4 6 8 7 4 1 1 3 2 1 1 0 1 1 2 2 3 4 4 4 4 5 6 6 8 9 9 9 9 8 8 7 8 8 8 7
9 11 12 12 11 11 10 10 10 10 10 10 11 11 11 11 11 10 10 10 9 8 8 8 9 9 8 7 7 6 5 4 6 8 6 4 6 7 6 4 5 6 6 6 3 3 2 2 3 7 9 8 7 8 7 6 7 4 2 1 1 2 2 2 3 3 3 3 5 6 6 7 8 8 7 7 7 7 8 9 8 8 8 7 6
10 11 12 12 11 10 10 10 10 11 11 11 10 10 11 10 10 10 10 10 10 9 8 10 10 9 9 8 8 6 5 1 4 10 11 11 8 6 5 5 6 8 7 6 5 4 3 2 2 1 3 6 7 10 11 12 12 13 13 13 10 4 2 3 4 3 3 4 5 6 7 8 9 8 8 8 7 7 7 8 9 8 8 9 9
11 12 12 11 11 11 10 11 11 11 11 12 11 11 10 10 10 10 10 11 9 9 10 10 9 9 8 9 7 5 3 9 7 6 8 7 10 7 5 5 5 6 9 7 4 3 4 4 3 2 4 6 5 6 8 12 13 15 15 15 14 15 12 6 3 4 5 6 7 7 6 7 8 8 9 8 8 8 8 8 7 8 9 9 7
10 11 11 11 11 11 11 11 11 11 11 11 11 10 11 11 11 11 12 11 9 9 10 9 9 9 9 7 5 4 5 7 8 8 8 11 9 7 6 6 6 8 10 7 5 4 5 6 4 4 4 5 3 6 7 9 14 16 16 16 15 13 10 11 12 8 7 7 8 9 8 8 9 9 9 9 7 7 7 7 8 7 7 8 7
11 12 11 11 11 11 11 12 12 12 11 11 11 11 11 12 12 11 10 9 9 9 10 10 9 7 6 6 5 4 5 6 4 9 11 11 8 9 8 7 7 9 8 5 4 5 5 6 5 4 4 4 3 3 6 8 8 8 8 9 9 11 11 11 12 12 10 9 9 9 9 9 9 9 9 8 8 8 7 8 7 6 7 7 7
11 11 12 13 12 12 12 12 12 12 11 11 10 11 11 11 10 9 8 9 9 9 9 9 6 4 5 5 5 4 4 3 3 6 9 10 8 8 6 7 7 5 4 3 0 2 5 5 6 6 5 5 6 8 6 6 7 7 8 10 10 9 9 9 9 8 8 8 9 9 9 8 8 9 9 7 8 6 6 7 8 6 4 4 7
11 12 12 12 13 13 12 12 12 12 11 11 11 11 11 10 10 9 8 7 6 5 4 4 6 6 5 6 6 5 4 2 2 6 9 11 12 9 7 6 5 3 5 7 7 6 6 6 6 6 7 8 9 9 7 6 8 9 10 11 11 10 11 11 13 13 10 8 9 9 9 9 9 9 10 10 8 7 6 5 6 7 7 7 7
10 11 12 12 12 13 13 12 12 12 12 12 12 12 12 11 10 8 8 6 4 4 4 5 5 7 7 6 7 5 4 2 2 2 4 10 10 5 5 4 5 7 6 6 7 7 6 6 6 6 7 6 7 7 5 5 8 10 11 11 10 9 9 9 11 12 13 13 12 11 10 9 10 13 15 15 11 9 7 8 11 9 9 8 8
9 10 11 12 12 12 14 15 14 14 11 12 13 11 10 8 9 8 9 7 6 6 5 6 5 5 6 6 5 6 5 3 1 2 4 5 5 4 4 6 6 7 8 8 8 8 8 11 9 8 8 6 7 7 2 2 7 9 12 12 11 9 8 7 7 7 9 10 11 10 10 10 10 12 14 14 14 12 10 11 9 7 8 8 7
10 10 10 12 13 13 13 14 15 14 13 12 11 11 11 8 8 7 7 7 7 7 6 6 6 5 5 7 8 8 6 4 3 4 7 8 7 7 7 7 8 7 9 10 9 8 8 10 12 10 9 9 12 9 7 7 9 8 8 9 9 8 6 5 5 6 6 8 8 8 9 10 9 9 10 14 15 14 10 9 7 8 8 7 7
11 11 10 11 12 13 13 14 15 15 13 12 10 8 8 8 9 8 6 8 10 9 8 8 8 6 5 6 6 6 7 5 5 7 10 10 9 8 8 9 10 10 9 9 9 9 9 8 9 11 12 12 13 12 11 9 6 5 6 8 8 8 5 6 6 6 7 7 7 8 8 7 8 8 8 9 10 11 10 9 8 7 6 6 6
11 11 11 12 13 14 13 13 14 13 13 11 8 8 8 10 10 8 10 10 9 7 9 10 10 8 6 6 7 6 5 8 6 8 11 11 11 10 9 10 11 12 12 11 11 11 9 7 6 11 14 13 14 14 14 12 10 8 7 6 6 6 5 7 8 11 8 7 7 7 7 7 7 7 8 8 8 8 8 8 8 7 6 6 6
8 12 12 12 13 13 13 12 13 12 10 10 10 9 8 9 10 11 12 10 10 10 11 11 12 11 8 7 8 8 8 9 8 8 9 10 9 10 9 9 11 11 12 10 10 10 9 9 8 8 12 13 14 15 16 15 12 7 8 9 9 10 8 6 5 6 7 8 8 8 8 7 7 8 8 8 8 8 8 8 8 7 7 6 6
11 9 11 12 12 13 12 11 11 11 10 10 11 10 8 8 8 8 11 10 11 12 12 11 12 11 9 8 8 8 8 8 10 9 10 11 11 11 12 10 9 8 13 12 10 10 9 10 8 11 13 15 16 15 14 14 10 8 10 9 9 10 8 6 7 7 7 7 7 8 7 7 8 8 8 7 7 7 7 7 7 7 6 6 7
8 8 8 10 11 12 13 12 11 11 10 10 11 11 10 9 10 10 10 11 12 13 10 10 11 10 9 7 8 8 8 8 10 13 11 13 12 13 12 11 10 9 11 11 10 10 10 11 10 12 14 16 15 14 13 11 8 11 10 10 10 9 7 7 7 6 7 7 8 8 8 7 7 7 7 7 7 7 6 6 6 6 6 6 7
7 7 8 9 10 11 11 10 11 10 11 12 12 11 12 12 9 8 10 10 9 10 10 11 9 8 9 7 7 8 7 7 7 10 14 12 12 13 13 13 12 11 10 9 9 9 12 14 13 14 15 15 15 13 11 10 10 10 10 11 10 6 6 5 5 5 7 8 7 7 7 6 6 6 6 6 6 6 6 6 6 7 6 5 5
6 7 7 7 7 7 6 2 3 7 10 11 13 12 14 13 11 10 10 10 9 11 10 9 8 8 8 8 9 7 7 6 7 8 8 11 9 11 12 11 13 14 13 11 15 17 16 15 16 15 14 12 9 8 8 8 11 13 13 11 7 6 5 5 5 6 7 6 7 6 6 5 5 5 5 6 7 7 7 7 7 7 7 6 5
8 8 9 8 9 5 5 6 7 8 8 7 6 9 11 12 12 11 10 10 11 11 12 10 9 9 9 9 7 6 6 6 4 5 4 4 4 5 7 8 9 10 10 11 13 11 12 10 7 8 10 12 12 12 11 10 9 8 7 7 7 6 5 4 5 6 6 6 6 5 5 4 3 3 4 5 5 5 6 6 7 7 7 6 5
8 9 9 9 9 11 11 14 14 11 10 10 9 8 5 9 10 10 9 9 12 12 11 11 11 9 8 8 10 6 4 4 3 3 2 3 3 2 4 4 3 3 8 9 10 10 9 9 11 10 8 7 6 6 7 8 8 7 7 6 6 6 8 10 9 6 5 5 4 3 2 2 3 4 4 5 5 5 6 6 6 6 6 6 4
12 14 11 11 13 12 12 13 12 14 15 14 14 13 9 6 13 13 11 7 7 10 12 11 9 9 7 5 10 8 4 5 3 2 1 2 3 4 4 3 3 4 7 13 11 9 8 8 8 7 6 7 7 7 7 8 8 7 7 6 6 6 5 4 5 5 4 4 4 4 4 4 5 5 5 5 5 5 5 5 5 5 5 4 5
13 14 13 14 12 12 12 12 12 11 13 15 16 17 21 19 12 13 12 14 17 12 8 10 10 8 7 4 3 5 7 5 6 5 2 2 0 2 4 6 5 7 10 12 11 9 9 8 7 7 7 7 7 7 7 7 7 7 6 6 6 5 5 5 5 5 5 5 5 5 5 5 5 5 5 6 5 5 4 5 5 5 5 6 6
12 12 14 15 17 13 11 10 11 12 12 13 14 14 13 12 21 23 21 15 14 14 14 16 14 10 8 6 8 13 11 9 7 5 5 4 3 4 7 8 10 14 13 11 9 8 8 8 8 6 6 6 7 7 6 6 6 6 6 6 6 6 6 6 6 5 5 5 5 5 5 5 5 5 5 6 5 5 5 5 5 6 6 7 7
14 14 12 10 13 11 12 13 11 12 13 12 12 12 12 12 13 20 20 18 16 13 14 15 14 13 13 11 9 7 9 8 9 8 7 7 7 7 9 11 13 14 11 11 10 8 8 8 8 6 6 7 7 6 6 6 6 6 6 6 6 6 6 6 5 5 4 4 4 5 4 4 4 4 4 5 5 4 5 5 6 7 7 6 7
15 15 14 14 12 13 13 12 11 11 12 12 11 10 11 10 11 11 12 15 18 16 16 15 16 16 16 16 14 12 10 10 11 12 12 13 13 13 13 13 13 12 12 8 8 8 8 8 8 7 6 7 7 6 6 6 6 6 6 6 6 6 6 5 4 4 4 4 4 4 4 4 4 4 3 4 4 4 4 5 6 6 7 7 7
12 12 12 12 12 11 11 11 11 10 9 10 10 9 9 7 8 9 9 9 9 13 18 19 17 18 17 15 15 14 13 12 11 12 14 15 15 15 14 11 12 10 7 9 8 8 8 8 7 7 7 7 7 7 7 6 6 6 6 6 6 5 4 3 4 4 4 4 3 3 3 4 3 4 4 4 4 4 5 5 6 7 8 8 8
10 13 16 12 11 12 11 10 11 10 10 9 9 10 9 8 9 9 9 9 9 9 7 10 14 15 12 11 12 14 13 13 12 12 14 16 17 16 15 11 9 8 7 7 8 7 7 7 7 7 7 7 7 7 7 6 6 6 6 5 5 4 4 4 4 4 3 3 3 3 4 4 4 4 4 5 5 5 6 6 7 7 7 7 7
9 9 9 11 10 10 10 9 9 10 10 9 9 10 9 9 10 10 10 10 10 10 9 8 8 11 17 15 14 15 16 15 14 13 10 8 9 12 9 8 8 8 8 7 8 8 8 7 7 7 7 7 6 6 6 6 6 5 5 4 4 4 4 3 3 2 2 3 3 3 3 4 5 5 5 5 6 6 6 7 7 7 7 7 7
8 8 8 9 10 10 10 10 9 8 9 10 9 10 9 10 10 10 10 9 9 8 8 8 8 9 11 10 12 15 16 17 16 15 14 12 11 9 8 8 8 8 8 8 7 7 8 7 7 7 6 7 6 6 6 6 6 6 5 5 4 4 4 4 3 3 3 3 4 4 5 5 5 6 6 5 6 6 6 6 6 6 6 7 7
9 8 8 9 9 9 9 9 10 10 9 8 8 9 9 9 9 9 10 9 9 9 8 8 8 8 8 6 6 7 9 11 13 12 11 10 9 8 8 8 8 8 8 7 7 7 8 7 7 7 7 7 7 6 6 6 5 5 5 4 4 4 2 2 3 3 4 4 4 5 5 5 5 5 5 5 6 6 6 6 6 7 7 7 6
9 12 13 12 10 9 9 9 9 8 8 8 8 8 9 9 9 9 9 9 8 8 8 7 7 7 6 4 4 4 7 8 7 7 7 7 7 7 7 7 8 8 8 8 7 8 8 8 7 7 7 7 6 6 5 5 5 4 3 3 3 3 3 4 4 4 4 5 4 5 5 5 5 5 5 5 5 6 6 7 7 7 7 7 7
8 7 9 13 10 10 9 9 8 8 8 8 7 8 8 8 8 9 8 8 8 7 7 7 7 6 4 3 3 5 8 7 7 6 7 7 7 7 7 7 7 8 8 8 7 8 8 8 7 7 7 6 6 5 4 4 4 4 3 4 4 4 4 4 5 5 5 4 4 4 5 4 4 4 5 6 6 6 6 7 6 7 7 7 7
6 7 7 7 10 9 9 8 8 8 7 7 7 7 8 8 8 8 8 8 8 8 8 8 7 6 6 7 9 9 8 7 7 7 7 7 7 7 7 7 7 8 7 8 7 7 8 7 7 6 6 5 5 5 4 4 4 4 4 4 4 4 4 5 5 5 4 4 5 4 4 5 5 5 6 6 6 6 6 6 6 6 6 6 7
6 6 5 5 7 7 8 8 8 9 8 8 7 7 8 7 7 7 8 8 8 8 8 8 7 7 8 11 11 12 9 7 7 7 7 7 7 7 7 7 7 7 7 7 7 7 7 7 6 6 6 5 5 5 4 5 4 4 5 5 4 4 4 4 4 4 4 5 5 5 5 6 6 5 6 6 5 5 6 6 6 5 6 6 6
8 8 4 3 5 6 7 7 8 8 8 8 8 8 8 8 7 7 8 8 8 7 8 8 7 7 7 8 9 11 8 8 7 8 7 7 7 7 7 7 7 7 7 7 6 6 6 7 6 6 6 5 5 5 5 5 4 4 5 5 5 5 4 3 3 3 4 5 5 6 6 6 5 5 5 5 5 5 5 5 5 6 6 6 6
7 7 7 4 5 6 7 7 7 7 8 9 9 8 8 8 8 8 8 8 7 7 7 7 7 6 6 6 7 8 8 7 7 7 8 7 7 7 7 7 7 7 7 7 6 6 6 7 7 7 6 6 6 6 5 5 5 5 5 4 4 4 3 3 3 4 4 5 5 5 5 5 5 5 5 4 4 5 5 6 6 7 7 7 7
5 7 7 6 6 7 7 7 8 8 10 9 8 8 8 8 8 8 8 8 8 7 7 7 7 7 6 6 7 7 7 7 7 7 7 7 7 7 7 7 7 7 7 6 6 6 7 7 7 7 7 6 6 6 6 6 6 5 5 4 4 4 4 3 3 3 4 4 4 4 5 5 5 5 5 5 5 5 5 6 6 6 7 7 7
5 6 7 7 6 6 6 6 7 8 8 8 8 8 7 8 8 8 8 8 8 7 7 7 7 7 6 6 6 7 7 7 7 7 7 7 7 6 6 6 7 6 6 6 6 6 6 6 6 6 7 6 6 7 7 6 5 5 4 5 4 4 3 3 3 2 4 4 4 4 4 4 5 5 6 5 5 6 6 7 6 6 7 7 7
4 6 7 7 6 6 6 7 7 7 8 8 8 9 8 8 8 8 8 8 8 8 7 7 6 6 6 6 6 6 6 7 7 6 7 7 7 6 6 6 7 7 6 6 6 6 6 6 6 7 7 7 7 6 5 4 5 5 5 5 5 4 4 3 2 2 3 3 3 4 5 5 6 6 6 6 5 6 6 6 6 6 7 7 7
4 5 5 7 7 7 7 7 8 8 8 8 8 8 8 8 8 8 7 7 7 7 7 7 6 6 6 6 6 6 6 6 7 7 7 6 6 6 7 7 7 6 6 6 6 6 6 6 7 7 7 6 5 5 5 5 5 5 5 5 5 5 3 4 3 3 3 3 4 5 5 6 6 6 6 6 6 6 6 6 6 6 6 6 6
5 5 5 6 6 7 7 7 7 8 8 8 8 8 8 7 7 7 7 7 7 7 7 7 7 6 6 6 6 6 6 6 6 6 6 6 6 6 6 6 6 6 6 6 6 6 6 6 6 6 5 5 5 5 4 4 4 4 4 4 4 2 3 7 5 5 4 3 4 4 5 5 6 6 5 5 5 5 5 6 6 6 6 6 6
5 6 5 5 5 5 5 6 6 7 7 7 8 7 7 7 7 7 7 7 7 7 6 6 6 6 6 6 6 6 6 6 6 6 6 6 6 6 7 6 6 6 6 6 6 6 5 5 5 5 5 5 4 4 4 3 3 3 3 4 3 2 4 3 4 7 7 5 5 4 5 4 5 5 5 5 5 5 6 6 6 6 6 6 6
5 5 5 5 5 5 5 6 6 6 6 7 7 7 7 7 7 7 7 7 7 7 6 6 6 6 6 6 6 6 6 6 6 6 6 6 6 6 6 6 6 6 6 7 6 6 5 5 5 5 4 4 4 3 3 3 3 3 5 4 3 4 5 7 4 6 7 8 4 5 4 4 4 5 5 5 5 5 6 6 6 6 6 6 6
Wind_Direction
208 209 207 209 206 203 205 199 201 200 204 206 215 219 221 224 231 239 238 233 229 225 223 228 231 235 247 251 252 245 234 239 234 233 229 235 240 246 249 237 245 253 252 264 271 273 273 276 275 277 275 278 279 286 288 270 238 239 259 252 260 246 248 263 281 299 302 307 304 319 337 332 334 337 334 333 335 346 323 337 331 338 332 337 339
211 209 206 208 211 211 213 206 203 202 208 210 214 219 221 221 221 224 234 233 227 230 230 235 234 237 246 247 246 245 241 235 241 235 234 234 243 238 230 226 236 247 251 255 261 269 271 269 271 274 266 273 281 278 277 244 262 268 252 275 272 241 227 271 291 295 302 311 321 327 322 343 321 348 337 327 337 333 333 332 336 337 344 331 326
206 201 202 205 211 215 213 209 205 207 212 216 220 223 223 222 219 224 233 236 224 230 234 237 230 231 242 247 243 252 247 251 245 241 235 235 244 249 246 238 240 249 249 248 254 262 268 269 274 282 280 275 266 267 269 265 274 279 259 258 267 247 186 240 285 300 315 322 325 319 339 340 330 337 332 334 329 335 331 338 337 343 345 335 334
200 198 206 213 215 216 214 214 214 213 217 220 224 225 228 227 219 226 233 235 234 224 226 232 222 223 234 239 243 248 249 241 237 229 230 231 234 233 235 234 238 248 254 258 255 267 307 318 319 320 320 299 282 283 270 270 249 222 233 183 226 276 289 288 306 316 317 317 329 329 335 328 329 331 333 332 335 337 335 338 340 341 343 337 333
201 200 205 213 214 213 217 216 217 216 218 221 224 224 226 229 225 226 229 233 234 234 212 213 216 220 230 235 237 237 242 240 237 237 234 233 234 240 241 238 245 250 261 266 2 27 326 277 283 295 315 302 294 280 277 247 240 245 261 247 313 321 319 328 339 330 324 321 324 325 327 328 335 328 348 346 340 339 343 346 340 330 331 324 322
200 196 203 210 212 214 216 218 219 217 215 219 224 225 226 227 228 225 225 229 231 231 222 214 218 219 224 228 234 238 241 239 236 238 242 238 238 244 246 246 246 254 265 18 102 197 220 218 220 229 239 253 278 281 277 264 240 227 233 304 329 313 328 336 337 330 323 326 327 327 340 340 336 351 3 345 335 332 332 336 329 334 330 332 336
206 207 202 206 213 216 216 215 218 220 218 218 219 223 226 228 228 229 223 224 225 229 226 215 211 225 224 228 236 236 237 237 238 245 285 298 283 265 258 250 254 253 266 136 187 153 214 211 213 229 239 242 252 254 236 227 227 204 183 201 296 318 317 334 330 331 331 330 331 339 338 348 349 345 349 344 342 342 343 340 341 351 352 342 345
202 212 215 213 212 213 217 218 216 216 216 213 212 217 224 229 230 231 229 225 224 228 230 222 220 229 228 224 230 234 235 242 241 51 295 258 266 273 263 262 260 254 224 180 173 182 208 215 211 210 219 230 235 222 212 203 193 204 203 251 291 320 326 338 352 348 349 344 347 351 349 347 359 355 350 354 354 357 354 347 346 355 356 357 5
200 205 211 215 215 212 208 211 212 209 209 211 213 216 220 225 227 228 226 229 231 230 228 230 232 228 220 222 227 229 237 226 153 193 220 249 284 286 277 270 267 248 239 215 208 205 216 231 236 227 238 250 237 230 107 131 220 199 163 146 103 356 357 15 16 14 359 355 1 358 359 10 11 359 1 6 2 353 348 353 353 358 354 358 16
214 210 214 214 215 211 208 205 206 209 211 213 214 213 217 221 224 224 227 230 231 229 225 225 233 234 227 219 225 228 229 203 187 179 198 227 247 252 260 268 268 251 224 226 228 238 250 269 259 240 235 222 169 117 107 82 50 54 99 95 71 49 45 43 41 26 17 18 19 12 13 12 12 8 353 359 357 357 358 355 350 352 355 1 21
220 215 218 217 215 212 209 211 209 208 207 209 213 214 217 218 219 219 220 221 224 219 221 228 230 233 229 229 233 224 213 174 118 175 188 204 223 240 260 264 258 254 242 220 213 191 207 220 212 270 217 158 114 105 100 95 92 83 71 60 44 30 40 60 54 43 38 37 37 34 27 16 6 356 350 346 351 353 348 340 340 348 359 9 22
226 222 220 217 213 211 211 211 209 211 208 208 208 210 212 214 216 216 219 222 216 220 225 227 226 229 231 235 231 219 164 77 97 134 159 187 230 240 243 241 238 253 258 243 219 193 188 190 169 63 33 36 74 88 95 97 94 87 79 72 66 55 41 37 67 66 53 57 56 44 36 27 14 8 357 357 350 345 350 342 354 357 22 38 37
231 231 226 221 218 213 212 211 211 212 211 209 208 205 207 212 215 216 218 219 218 216 218 221 223 223 226 218 200 167 127 82 106 133 161 205 196 223 234 233 224 235 247 249 235 210 186 176 130 84 76 67 89 132 128 104 94 95 94 88 79 72 63 48 34 51 81 76 75 61 48 38 32 21 12 8 7 16 1 9 5 25 49 47 38
242 237 230 224 220 216 211 212 213 212 210 209 207 205 205 211 215 218 218 213 211 212 218 221 221 213 203 192 147 131 120 82 121 150 182 215 209 205 229 231 234 241 246 245 231 215 189 157 122 103 79 72 49 64 89 91 91 83 88 88 87 95 99 91 85 80 81 76 70 63 53 47 44 30 24 19 31 27 18 18 16 28 60 69 52
246 244 241 235 226 221 214 211 214 212 209 206 205 208 208 210 213 213 212 209 208 210 213 212 196 166 154 147 141 127 88 69 152 154 174 197 214 221 226 224 219 232 235 237 310 96 102 96 102 101 98 78 80 102 95 96 100 109 97 86 80 64 51 57 62 62 63 64 68 67 59 47 40 31 23 18 32 22 12 23 16 8 31 95 66
245 245 244 241 235 227 219 214 212 212 206 204 208 209 208 207 206 204 206 213 207 192 160 157 134 131 130 130 129 127 105 44 176 172 167 184 188 203 206 199 208 161 75 70 85 83 92 105 106 108 118 122 108 109 116 127 128 124 107 99 91 81 71 64 64 64 61 60 64 62 59 49 40 30 22 19 20 10 16 30 22 29 34 38 37
261 248 246 244 240 234 226 217 213 208 204 197 200 203 203 200 199 190 194 189 164 154 139 129 128 132 138 143 139 126 119 42 322 189 167 161 187 206 194 176 100 93 85 78 75 81 89 103 110 113 111 107 109 111 126 156 125 115 113 111 105 100 96 85 74 70 68 63 59 55 47 40 38 36 28 22 16 14 25 32 25 17 24 22 21
267 262 251 245 242 238 234 229 222 214 196 198 199 197 195 194 198 181 177 156 151 137 132 122 118 125 134 136 135 124 108 65 335 131 122 168 219 174 141 121 110 96 93 82 80 83 95 98 99 108 111 108 77 88 350 148 108 116 114 111 112 108 101 93 87 80 79 75 65 55 46 41 39 45 37 31 29 30 40 41 26 19 29 24 17
252 249 251 248 242 238 233 231 229 217 203 199 197 196 200 195 197 178 148 134 127 126 118 113 109 104 109 110 108 111 107 90 69 119 118 115 128 133 135 125 109 109 105 102 96 95 91 96 87 85 96 84 70 49 43 107 115 106 100 105 101 90 82 88 87 79 63 60 52 51 48 42 41 39 39 39 40 41 41 38 27 32 32 27 21
256 255 247 241 245 242 237 232 229 220 205 199 190 179 170 166 168 169 130 125 136 140 128 130 128 122 120 116 112 111 109 101 86 109 115 116 121 135 140 132 125 121 117 114 110 99 91 85 72 78 81 84 89 87 64 52 73 80 96 94 100 95 89 83 81 83 74 66 60 54 50 43 41 38 36 38 41 37 35 35 33 28 32 27 27
255 250 250 246 235 234 233 228 225 223 217 204 182 179 174 173 168 149 145 147 141 127 125 127 127 124 114 110 108 102 109 114 92 105 113 118 124 129 139 134 132 126 121 119 120 121 122 120 120 113 110 108 101 92 84 69 68 68 64 72 75 98 100 90 79 76 76 74 70 62 55 46 42 42 43 41 37 32 36 36 34 32 25 24 16
254 250 246 245 242 231 219 212 220 220 213 201 188 178 175 175 167 150 153 138 137 129 138 141 134 127 116 102 100 99 102 103 110 91 101 103 105 109 122 129 134 129 125 124 118 117 117 114 108 101 99 95 92 92 93 95 91 87 81 91 96 91 87 88 88 85 77 73 68 64 59 51 46 43 44 42 33 33 35 37 36 35 34 33 28
279 257 245 240 237 231 217 199 203 215 202 195 178 158 158 158 151 139 142 134 131 136 141 137 127 118 108 105 106 110 107 100 97 98 86 92 93 91 98 111 114 104 125 124 121 117 115 107 102 99 96 95 92 91 92 92 85 89 97 93 97 102 100 88 85 80 78 75 70 66 57 51 48 43 38 35 35 26 33 36 36 37 39 40 31
281 265 250 241 236 230 219 207 200 194 180 169 150 142 140 144 149 153 150 144 140 136 135 128 115 106 105 107 105 104 105 104 90 93 88 87 89 88 77 70 76 109 115 116 116 116 115 115 111 104 99 97 97 97 97 98 107 110 105 103 95 89 85 90 82 82 83 77 72 65 59 51 48 44 34 28 24 22 21 31 33 34 32 33 34
275 260 245 236 226 220 216 214 205 198 182 154 151 149 151 149 138 138 139 130 123 119 123 126 116 115 110 108 108 100 95 92 90 89 90 86 87 88 86 85 78 79 93 99 106 103 102 106 109 107 106 102 100 95 88 91 99 98 93 88 86 81 79 85 89 86 80 75 75 71 66 56 50 46 32 21 22 22 22 22 25 22 18 18 26
291 276 260 242 221 203 204 158 166 171 153 161 163 161 148 141 135 136 128 120 120 120 119 115 108 109 110 114 110 104 89 77 86 96 94 95 90 94 95 93 92 80 80 90 103 108 109 109 109 111 110 113 109 103 102 100 91 82 75 71 73 75 72 79 74 80 79 80 74 72 68 63 52 37 25 27 27 24 13 11 6 13 8 10 9
57 52 48 43 37 44 107 116 80 69 76 75 113 138 141 146 137 127 124 123 122 123 120 119 116 121 116 107 93 89 90 73 70 80 63 77 90 105 97 93 102 109 106 110 110 107 113 116 112 98 93 92 96 99 97 90 77 73 71 72 72 66 53 52 66 73 80 77 77 67 60 47 36 28 31 25 28 20 8 7 4 7 2 4 1
60 59 59 52 49 66 71 79 82 79 61 60 59 52 61 105 99 94 109 123 126 117 118 117 117 113 108 124 114 79 62 82 78 80 73 86 103 90 103 108 112 101 108 112 118 116 111 107 106 107 111 106 94 86 78 73 72 68 63 63 69 73 78 76 73 71 73 81 83 84 60 35 31 25 27 29 24 22 9 8 2 356 356 348 0
70 71 72 76 77 66 68 71 75 80 80 71 60 45 20 82 98 88 67 68 79 107 110 102 103 110 124 147 115 123 140 124 128 55 34 7 124 146 144 136 132 106 111 121 117 112 117 116 114 111 102 99 93 90 91 88 81 80 85 88 87 80 74 76 76 67 60 61 56 45 41 32 31 16 14 18 18 14 10 358 359 351 346 349 4
73 75 76 76 75 77 81 78 69 70 81 89 84 69 34 13 57 92 89 50 54 56 94 118 126 123 107 59 56 127 131 120 109 124 163 178 332 72 94 118 136 126 132 129 127 128 129 128 122 114 114 114 110 105 104 106 105 99 88 81 79 76 72 69 63 60 55 48 41 35 26 19 20 11 6 7 4 4 14 354 354 351 351 359 3
77 80 83 86 86 78 74 72 81 85 80 80 84 86 94 44 39 56 67 68 63 60 66 77 84 95 119 120 71 68 85 104 126 152 153 169 169 134 129 138 135 138 142 130 134 130 131 121 114 112 112 110 106 106 108 105 102 100 94 84 78 71 62 56 45 44 43 39 33 26 19 16 9 5 358 359 353 349 359 359 1 359 2 1 1
84 84 83 79 86 84 85 84 78 86 89 84 86 95 87 89 58 46 56 60 58 57 63 69 74 77 79 90 104 78 71 88 114 124 130 127 128 127 127 131 136 142 153 141 133 131 123 119 119 112 107 103 101 105 107 104 101 97 93 86 72 62 60 54 33 36 37 32 26 24 16 6 357 358 352 356 339 352 356 4 2 3 1 356 359
91 92 90 81 77 81 87 88 86 80 85 90 94 91 94 86 91 84 65 70 69 59 57 62 68 70 73 70 72 95 109 113 115 117 121 117 111 109 110 116 130 137 124 120 122 116 114 112 113 116 115 108 106 99 94 92 89 84 82 84 81 70 61 49 31 47 42 28 15 20 3 356 353 340 349 350 349 357 1 7 0 358 357 353 356
83 90 91 88 85 82 83 89 91 89 88 94 95 98 98 99 109 111 112 102 77 59 51 46 53 70 63 71 83 85 88 95 101 112 113 110 107 103 99 90 77 66 92 120 113 113 111 113 109 104 100 99 100 99 94 91 88 89 88 83 81 74 64 51 53 41 34 26 18 14 357 354 355 346 356 357 1 1 9 10 358 2 1 356 352
83 79 81 86 92 95 99 99 100 101 103 102 106 106 105 103 100 96 95 92 83 74 71 54 39 52 74 74 80 88 91 89 89 95 106 112 112 114 107 99 98 88 70 77 90 98 103 100 99 96 98 96 94 96 97 96 96 91 89 87 81 74 65 53 47 34 20 22 13 11 2 355 359 356 358 10 9 8 11 5 2 3 359 352 349
84 91 89 86 89 97 99 102 102 107 110 111 108 105 106 103 96 94 90 87 90 94 86 79 90 82 78 71 77 82 81 78 76 73 72 85 115 111 98 96 92 86 86 80 83 85 85 89 92 93 93 95 97 96 95 93 88 85 79 78 74 65 54 50 40 36 25 20 23 10 0 19 14 4 7 14 15 9 3 2 358 0 354 358 345
82 80 89 91 98 100 103 104 107 106 104 102 99 99 99 96 94 93 88 88 88 85 89 100 99 85 77 74 74 75 78 81 76 69 61 56 56 70 86 91 94 91 87 88 88 90 87 83 85 89 91 93 92 92 92 91 88 84 74 66 61 61 60 42 30 21 16 30 29 26 21 28 18 15 6 7 5 3 3 1 357 358 357 355 342
99 100 99 105 105 102 100 97 93 88 88 88 91 96 95 92 90 89 90 90 87 87 84 81 77 81 85 80 74 89 88 82 74 64 54 50 53 68 78 85 86 89 89 87 88 91 92 90 87 88 88 90 91 91 89 84 81 81 83 87 83 75 73 86 58 37 36 29 32 30 22 25 17 11 6 8 7 4 5 4 359 357 354 356 356
92 95 99 98 101 105 105 104 99 98 92 89 90 92 92 92 90 89 90 90 86 84 86 83 80 80 82 92 96 95 86 67 64 69 64 65 66 70 78 83 87 87 88 88 89 90 91 90 88 88 89 88 88 86 84 84 81 79 79 85 75 69 57 44 46 34 36 36 36 31 22 17 14 13 11 6 9 9 6 3 4 2 356 355 354
101 103 100 105 107 107 110 108 106 100 96 93 89 91 92 90 90 93 94 91 86 82 79 76 70 61 46 48 92 95 83 81 79 81 80 76 74 71 76 81 84 88 90 88 88 92 93 92 90 90 88 87 85 86 88 92 91 88 77 62 66 67 55 45 40 38 37 33 34 30 24 20 18 13 17 17 11 5 6 2 2 357 358 353 352
98 105 108 106 112 115 113 113 108 104 99 93 92 90 90 90 91 92 91 90 89 85 76 72 68 55 42 35 45 71 91 90 86 83 79 81 78 77 76 79 85 88 91 92 91 91 93 95 93 94 93 94 96 91 87 81 80 78 75 72 65 62 59 52 43 41 39 33 30 26 27 26 22 20 19 18 10 3 7 360 1 359 360 355 354
77 66 86 103 111 115 118 111 107 102 101 100 96 97 97 96 96 95 93 91 89 88 87 82 78 77 51 49 62 71 82 85 85 86 84 83 83 80 81 81 80 85 92 93 95 97 98 99 99 98 98 95 92 90 88 83 76 74 71 67 62 56 53 53 50 44 36 37 39 34 31 28 22 22 21 15 9 10 5 8 3 7 6 360 1
101 96 60 53 109 115 117 115 117 116 110 106 101 98 97 97 95 93 90 89 90 91 96 94 91 86 71 48 62 72 80 82 85 86 86 86 86 84 83 85 84 83 85 89 90 95 98 99 97 93 89 86 81 80 81 79 79 80 77 70 60 56 53 54 56 44 34 40 40 36 30 26 24 23 19 16 12 8 15 9 8 7 9 7 9
111 107 109 97 90 96 106 116 116 111 108 106 106 104 103 100 94 91 92 91 90 92 95 96 98 95 96 80 71 77 84 87 90 91 91 92 91 92 92 92 92 92 91 92 92 95 101 102 101 96 91 87 84 80 79 76 72 70 67 71 69 56 49 48 47 44 29 37 38 33 32 31 24 21 19 12 9 11 12 10 8 9 3 8 2
97 104 107 105 105 110 110 110 112 110 111 111 108 104 100 101 100 100 100 100 99 98 97 99 99 99 97 92 88 89 91 92 92 94 94 94 96 97 99 99 98 100 100 99 100 104 104 103 103 104 103 98 95 91 83 72 65 62 60 50 56 55 47 40 42 38 41 40 41 35 31 24 25 21 14 11 10 8 9 7 8 4 360 359 354
103 103 105 108 108 107 110 113 116 119 119 114 114 111 108 104 107 107 108 107 108 107 105 104 103 103 102 101 100 99 101 103 101 100 103 103 104 105 108 106 105 105 104 101 101 101 104 109 111 111 109 106 99 90 83 79 76 71 62 62 52 50 42 38 36 41 52 41 35 35 26 22 21 25 17 5 13 5 5 2 2 359 355 349 356
93 97 104 106 104 106 111 118 121 117 116 117 118 119 116 113 111 109 107 107 109 110 110 110 112 111 111 110 111 110 110 110 109 106 102 104 105 109 110 112 109 106 103 103 105 109 114 115 112 109 105 98 94 93 96 93 85 77 70 60 54 42 45 46 50 56 58 40 25 24 22 15 18 14 14 12 8 10 360 1 354 351 347 351 344
89 83 94 107 115 119 124 127 120 118 116 117 115 111 110 113 112 112 115 112 109 109 109 109 110 112 114 114 114 113 112 111 112 113 116 117 117 115 115 118 118 115 115 115 116 112 112 109 105 102 105 111 114 109 100 95 88 82 78 69 56 47 358 316 78 50 38 17 25 16 19 17 17 13 12 8 3 2 356 360 350 349 347 348 347
108 105 104 116 126 131 134 131 132 128 123 118 112 111 115 116 117 120 120 118 118 120 122 123 124 124 124 123 123 120 120 121 121 122 121 118 121 124 123 120 121 122 119 112 108 107 105 108 117 123 123 121 117 115 112 108 106 104 95 89 81 44 7 2 8 39 311 313 13 10 13 12 12 7 5 360 3 359 3 1 356 353 346 348 346
122 126 127 124 120 118 118 123 124 124 124 122 122 122 122 123 126 127 127 126 124 124 125 125 128 132 131 132 129 128 126 125 125 124 125 126 124 125 124 123 118 114 113 114 116 122 125 126 127 127 126 125 127 129 122 122 117 110 101 87 97 52 28 24 58 12 338 19 5 8 7 1 1 3 356 358 355 0 1 357 357 349 349 345 353
128 131 129 124 120 121 126 125 124 124 126 128 131 132 131 130 128 127 129 131 132 129 128 131 132 135 137 134 134 134 132 129 129 130 128 125 124 122 123 125 126 126 126 127 130 132 135 139 137 136 142 143 144 141 141 130 130 91 85 101 95 50 33 10 29 22 354 323 347 11 357 360 351 354 352 354 344 352 350 340 343 343 339 338 343